{"data":{"norad_id":68002,"epoch":"2026-05-24T22:54:20.496960Z","epoch_age_seconds":75074,"freshness":"FRESH","line1":"1 68002U 26039S   26144.95440390  .00007454  00000+0  28013-3 0  9993","line2":"2 68002  43.0013 338.5286 0001231 268.3224  91.7487 15.27580876 13366","mean_motion":15.27580876,"eccentricity":0.0001231,"inclination_deg":43.0013,"raan_deg":338.5286,"arg_perigee_deg":268.3224,"mean_anomaly_deg":91.7487,"bstar":0.00028013,"rev_number":1336,"period_min":94.266694655845,"perigee_km":482.20186129624,"apogee_km":483.89108466729,"semimajor_km":6861.1834729818,"source":"CELESTRAK","updated_at":"2026-05-25T13:38:21.782301Z"}}